Montello, Wisconsin, United States (53949)
Lat: 43.79N, Lon: 89.32W
Wx Zone: WIZ046
Local Info
Past Weather Observations for Friday, July 18, 2014

NOTE: This archive is for the closest National Weather Service station to Montello. Information may differ from the station used for current weather conditions.

Click here for Long-term Archive

Time Weather Temperature Dewpoint Humidity Pressure Winds Precip Visibility
23:55
Clear
59°F / 15°C 54°F / 12°C 82% 30.09 in
(1019 mb)
Calm - 10SM
23:35
Clear
59°F / 15°C 54°F / 12°C 82% 30.09 in
(1019 mb)
Calm - 10SM
23:15
Clear
61°F / 16°C 55°F / 13°C 83% 30.09 in
(1019 mb)
Calm - 10SM
22:55
Clear
59°F / 15°C 54°F / 12°C 82% 30.09 in
(1019 mb)
Calm - 10SM
22:35
Clear
61°F / 16°C 55°F / 13°C 83% 30.09 in
(1019 mb)
Calm - 10SM
22:15
Clear
61°F / 16°C 55°F / 13°C 83% 30.06 in
(1018 mb)
Calm - 10SM
21:55
Clear
61°F / 16°C 55°F / 13°C 83% 30.06 in
(1018 mb)
Calm - 10SM
21:35
Clear
61°F / 16°C 55°F / 13°C 83% 30.06 in
(1018 mb)
Calm - 10SM
21:15
Clear
64°F / 18°C 55°F / 13°C 73% 30.06 in
(1018 mb)
Calm - 10SM
20:55
Clear
64°F / 18°C 55°F / 13°C 73% 30.06 in
(1018 mb)
Calm - 10SM
20:35
Clear
66°F / 19°C 55°F / 13°C 68% 30.06 in
(1018 mb)
Calm - 10SM
20:15
Clear
68°F / 20°C 55°F / 13°C 64% 30.06 in
(1018 mb)
Calm - 10SM
19:55
Clear
68°F / 20°C 57°F / 14°C 69% 30.06 in
(1018 mb)
Calm - 10SM
19:35
Clear
68°F / 20°C 57°F / 14°C 69% 30.06 in
(1018 mb)
Calm - 10SM
19:15
Clear
70°F / 21°C 57°F / 14°C 64% 30.06 in
(1018 mb)
Calm - 10SM
18:50
Clear
73°F / 23°C 55°F / 13°C 53% 30.06 in
(1018 mb)
Calm - 10SM
18:40
Clear
73°F / 23°C 55°F / 13°C 53% 30.06 in
(1018 mb)
Calm - 10SM
18:15
Clear
75°F / 24°C 54°F / 12°C 47% 30.06 in
(1018 mb)
Calm - 10SM
17:55
Clear
77°F / 25°C 54°F / 12°C 44% 30.06 in
(1018 mb)
SW 6.9 mph
(SW 11 kph)
- 10SM
17:35
Partly Cloudy
77°F / 25°C 52°F / 11°C 42% 30.06 in
(1018 mb)
SW 9.2 mph
(SW 15 kph)
- 10SM
17:15
Clear
79°F / 26°C 54°F / 12°C 42% 30.06 in
(1018 mb)
SW 4.6 mph
(SW 7 kph)
- 10SM
16:55
Clear
79°F / 26°C 54°F / 12°C 42% 30.06 in
(1018 mb)
SW 6.9 mph
(SW 11 kph)
- 10SM
16:35
Mostly Cloudy
79°F / 26°C 52°F / 11°C 39% 30.06 in
(1018 mb)
SSE 9.2 mph
(SSE 15 kph)
- 10SM
16:15
Mostly Cloudy
81°F / 27°C 52°F / 11°C 37% 30.06 in
(1018 mb)
SW 8.1 mph
(SW 13 kph)
- 10SM
15:55
Partly Cloudy
81°F / 27°C 52°F / 11°C 37% 30.09 in
(1019 mb)
SW 9.2 mph
(SW 15 kph)
- 10SM
15:35
Mostly Cloudy
77°F / 25°C 52°F / 11°C 42% 30.09 in
(1019 mb)
SSE 9.2 mph
(SSE 15 kph)
- 10SM
15:15
Clear
81°F / 27°C 52°F / 11°C 37% 30.09 in
(1019 mb)
S 10.4 mph
(S 17 kph)
- 10SM
14:55
Partly Cloudy
82°F / 28°C 50°F / 10°C 32% 30.09 in
(1019 mb)
SSE 10.4 mph
(SSE 17 kph)
- 10SM
14:35
Partly Cloudy
79°F / 26°C 52°F / 11°C 39% 30.09 in
(1019 mb)
SSE 9.2 mph
(SSE 15 kph)
- 10SM
14:15
Partly Cloudy
81°F / 27°C 50°F / 10°C 34% 30.09 in
(1019 mb)
SSE 10.4 mph
(SSE 17 kph)
- 10SM
13:55
Mostly Cloudy
81°F / 27°C 52°F / 11°C 37% 30.09 in
(1019 mb)
SSE 10.4 mph
(SSE 17 kph)
- 10SM
13:35
Partly Cloudy
79°F / 26°C 52°F / 11°C 39% 30.09 in
(1019 mb)
SW 5.8 mph
(SW 9 kph)
- 10SM
13:15
Mostly Cloudy
81°F / 27°C 52°F / 11°C 37% 30.12 in
(1020 mb)
SSE 12.7 mph
(SSE 20 kph)
- 10SM
12:55
Mostly Cloudy
79°F / 26°C 54°F / 12°C 42% 30.12 in
(1020 mb)
S 9.2 mph
(S 15 kph)
- 10SM
12:35
Partly Cloudy
81°F / 27°C 54°F / 12°C 39% 30.12 in
(1020 mb)
SSE 5.8 mph
(SSE 9 kph)
- 10SM
12:15
Overcast
77°F / 25°C 55°F / 13°C 47% 30.12 in
(1020 mb)
SW 8.1 mph
(SW 13 kph)
- 10SM
11:55
Mostly Cloudy
77°F / 25°C 54°F / 12°C 44% 30.12 in
(1020 mb)
SSE 6.9 mph
(SSE 11 kph)
- 10SM
11:35
Mostly Cloudy
77°F / 25°C 54°F / 12°C 44% 30.12 in
(1020 mb)
SW 3.5 mph
(SW 6 kph)
- 10SM
11:15
Mostly Cloudy
79°F / 26°C 54°F / 12°C 42% 30.12 in
(1020 mb)
S 4.6 mph
(S 7 kph)
- 10SM
10:55
Partly Cloudy
77°F / 25°C 54°F / 12°C 44% 30.12 in
(1020 mb)
SW 6.9 mph
(SW 11 kph)
- 10SM
10:35
Partly Cloudy
77°F / 25°C 54°F / 12°C 44% 30.12 in
(1020 mb)
SSW 9.2 mph
(SSW 15 kph)
- 10SM
10:15
Clear
75°F / 24°C 55°F / 13°C 50% 30.15 in
(1021 mb)
Calm - 10SM
09:55
Clear
77°F / 25°C 57°F / 14°C 51% 30.15 in
(1021 mb)
SW 4.6 mph
(SW 7 kph)
- 10SM
09:30
Clear
75°F / 24°C 57°F / 14°C 54% 30.15 in
(1021 mb)
SW 5.8 mph
(SW 9 kph)
- 10SM
09:15
Clear
73°F / 23°C 55°F / 13°C 53% 30.15 in
(1021 mb)
Calm - 10SM
08:55
Mostly Cloudy
72°F / 22°C 57°F / 14°C 61% 30.15 in
(1021 mb)
SSE 4.6 mph
(SSE 7 kph)
- 10SM
08:35
Overcast
68°F / 20°C 55°F / 13°C 64% 30.15 in
(1021 mb)
Calm - 10SM
07:55
Overcast
66°F / 19°C 55°F / 13°C 68% 30.15 in
(1021 mb)
Calm - 10SM
07:35
Overcast
66°F / 19°C 55°F / 13°C 68% 30.15 in
(1021 mb)
Calm - 10SM
07:15
Overcast
66°F / 19°C 57°F / 14°C 73% 30.15 in
(1021 mb)
Calm - 10SM
06:55
Overcast
64°F / 18°C 57°F / 14°C 78% 30.15 in
(1021 mb)
Calm - 10SM
06:35
Overcast
64°F / 18°C 55°F / 13°C 73% 30.15 in
(1021 mb)
Calm - 10SM
06:15
Overcast
63°F / 17°C 55°F / 13°C 77% 30.15 in
(1021 mb)
Calm - 10SM
05:55
Overcast
61°F / 16°C 54°F / 12°C 77% 30.15 in
(1021 mb)
Calm - 10SM
05:35
Overcast
59°F / 15°C 54°F / 12°C 82% 30.15 in
(1021 mb)
Calm - 10SM
05:15
Overcast
59°F / 15°C 54°F / 12°C 82% 30.15 in
(1021 mb)
Calm - 10SM
04:55
Overcast
57°F / 14°C 54°F / 12°C 88% 30.15 in
(1021 mb)
Calm - 10SM
04:35
Overcast
57°F / 14°C 52°F / 11°C 82% 30.12 in
(1020 mb)
Calm - 10SM
04:15
Mostly Cloudy
55°F / 13°C 50°F / 10°C 82% 30.12 in
(1020 mb)
Calm - 10SM
03:55
Clear
55°F / 13°C 50°F / 10°C 82% 30.12 in
(1020 mb)
Calm - 10SM
03:35
Clear
55°F / 13°C 50°F / 10°C 82% 30.12 in
(1020 mb)
Calm - 10SM
03:15
Clear
55°F / 13°C 50°F / 10°C 82% 30.12 in
(1020 mb)
Calm - 10SM
02:55
Clear
54°F / 12°C 50°F / 10°C 88% 30.12 in
(1020 mb)
S 4.6 mph
(S 7 kph)
- 10SM
02:35
Clear
54°F / 12°C 50°F / 10°C 88% 30.12 in
(1020 mb)
Calm - 10SM
02:15
Clear
55°F / 13°C 50°F / 10°C 82% 30.12 in
(1020 mb)
S 4.6 mph
(S 7 kph)
- 10SM
01:55
Clear
54°F / 12°C 50°F / 10°C 88% 30.12 in
(1020 mb)
Calm - 10SM
01:35
Clear
55°F / 13°C 50°F / 10°C 82% 30.12 in
(1020 mb)
S 3.5 mph
(S 6 kph)
- 10SM
01:15
Clear
55°F / 13°C 50°F / 10°C 82% 30.12 in
(1020 mb)
Calm - 10SM
00:55
Clear
54°F / 12°C 50°F / 10°C 88% 30.12 in
(1020 mb)
S 3.5 mph
(S 6 kph)
- 10SM
00:35
Clear
54°F / 12°C 50°F / 10°C 88% 30.12 in
(1020 mb)
S 3.5 mph
(S 6 kph)
- 10SM
00:15
Clear
55°F / 13°C 50°F / 10°C 82% 30.12 in
(1020 mb)
S 3.5 mph
(S 6 kph)
- 10SM
Time Weather Temperature Dewpoint Humidity Pressure Winds Precip Visibility


Weather for websites

WeatherForYou.com, LLC is not responsible for any damages or problems caused by this service. Current weather conditions are obtained from the closest station including government and personal stations which may have varying degrees of accuracy. Weather forecasts are derived from the NOAA NDFD. Like all things, this site belongs to Jesus Christ... He just trusts me to maintain it. If you have any questions or comments email webmaster@weatherforyou.com

Copyright © 2014, WeatherForYou.com LLC. All rights reserved.